Marrakech, Morocco

4:46 PM WET on May 23, 2017 (GMT +0000)
Marrakech

Weather History for GMMX - November, 2013

Change the Weather History Date:

Thursday, November 14, 2013

  Actual Average Record
Temperature  
Mean Temperature 65 °F -  
Max Temperature 78 °F 67 °F 82 °F (2015)
Min Temperature 52 °F 46 °F 42 °F (2004)
Growing Degree Days 15 (Base 50)    
Moisture  
Dew Point 53 °F    
Average Humidity 68    
Maximum Humidity 100    
Minimum Humidity 25    
Precipitation  
Precipitation 0.00 in 0.05 in - ()
Sea Level Pressure  
Sea Level Pressure 30.04 in    
Wind  
Wind Speed 4 mph ()    
Max Wind Speed 8 mph    
Max Gust Speed -    
Visibility 4.6 miles    
Events Fog    
Averages and records for this station are not official NWS values.
T = Trace of Precipitation, MM = Missing Value Source: Averaged Metar Reports

Daily Weather History Graph

Daily Weather History Graph

Search for Another Location

Airport or City:

Trip Planner

Search our weather history database for the weather conditions in past years. The results will help you decide how hot, cold, wet, or windy it might be!

Date:

Astronomy

Nov. 14, 2013 Rise Set
Actual Time 6:59 AM WET 5:33 PM WET
Civil Twilight 6:33 AM WET 5:59 PM WET
Nautical Twilight 6:04 AM WET 6:28 PM WET
Astronomical Twilight 5:35 AM WET 6:57 PM WET
Moon 3:37 PM WET (11/14) 3:51 AM WET (11/14)
Length of Visible Light 11h 25m
Length of Day
10h 34m
Waxing Gibbous, 90% of the Moon is Illuminated
Nov 14
Waxing Gibbous
Nov 17
Full
Nov 25
Last Quarter
Dec 3
New
Dec 9
First Quarter

Hourly Weather History & Observations

Time (WET) Temp. Dew Point Humidity Pressure Visibility Wind Dir Wind Speed Gust Speed Precip Events Conditions
12:00 AM 59 °F 57 °F 92% 30.05 in 5 mi WSW 2.3 mph - -  
12:00 AM 59.0 °F 57.2 °F 94% 30.06 in 5.0 mi Variable 2.3 mph - N/A   Unknown
12:30 AM 60.8 °F 59.0 °F 94% 30.06 in - SSW 3.5 mph - N/A   Clear
1:00 AM 59.0 °F 57.2 °F 94% 30.06 in - WSW 3.5 mph - N/A   Clear
1:30 AM 59.0 °F 57.2 °F 94% 30.06 in 5.6 mi Variable 2.3 mph - N/A   Unknown
2:00 AM 59.0 °F 59.0 °F 100% 30.06 in - SW 4.6 mph - N/A   Clear
2:30 AM 60.8 °F 57.2 °F 88% 30.06 in - SW 5.8 mph - N/A   Clear
3:00 AM 57 °F 55 °F 92% 30.06 in 6 mi SW 4.6 mph - -  
3:00 AM 57.2 °F 55.4 °F 94% 30.06 in - SW 4.6 mph - N/A   Clear
3:30 AM 57.2 °F 55.4 °F 94% 30.06 in 5.0 mi WSW 4.6 mph - N/A   Unknown
4:00 AM 57.2 °F 57.2 °F 100% 30.06 in 0.7 mi West 3.5 mph - N/A   Mostly Cloudy
4:30 AM 55.4 °F 55.4 °F 100% 30.06 in 0.1 mi WSW 3.5 mph - N/A Fog Fog
5:00 AM 55.4 °F 55.4 °F 100% 30.06 in 0.3 mi Variable 2.3 mph - N/A   Mostly Cloudy
5:30 AM 55.4 °F 55.4 °F 100% 30.06 in - SSW 3.5 mph - N/A   Mostly Cloudy
6:00 AM 54 °F 54 °F 100% 30.07 in 2 mi WSW 3.5 mph - -   Clear
6:00 AM 55.4 °F 55.4 °F 100% 30.06 in 0.5 mi WSW 3.5 mph - N/A   Mostly Cloudy
6:30 AM 53.6 °F 53.6 °F 100% 30.06 in 3.1 mi West 2.3 mph - N/A   Mostly Cloudy
7:00 AM 53.6 °F 53.6 °F 100% 30.06 in 4.3 mi West 1.2 mph - N/A   Scattered Clouds
7:30 AM 53.6 °F 53.6 °F 100% 30.06 in 5.6 mi Variable 1.2 mph - N/A   Scattered Clouds
8:00 AM 55.4 °F 55.4 °F 100% 30.09 in 6.2 mi ENE 1.2 mph - N/A   Partly Cloudy
8:30 AM 59.0 °F 55.4 °F 88% 30.09 in 4.3 mi Variable 2.3 mph - N/A   Unknown
8:54 AM 60.8 °F 55.4 °F 82% 30.09 in 2.5 mi NNE 3.5 mph - N/A   Scattered Clouds
9:16 AM 62 °F 57 °F 79% 30.08 in 2 mi North 3.5 mph - -   Mist
9:30 AM 60.8 °F 57.2 °F 88% 30.09 in 1.9 mi North 3.5 mph - N/A   Scattered Clouds
10:00 AM 64.4 °F 57.2 °F 77% 30.09 in 1.9 mi Variable 2.3 mph - N/A   Scattered Clouds
10:30 AM 64.4 °F 59.0 °F 83% 30.09 in 2.5 mi NNW 3.5 mph - N/A   Scattered Clouds
10:35 AM 66.2 °F 59.0 °F 78% 30.09 in 3.1 mi North 4.6 mph - N/A   Partly Cloudy
11:00 AM 66.2 °F 57.2 °F 73% 30.09 in 3.7 mi North 4.6 mph - N/A   Partly Cloudy
11:30 AM 69.8 °F 57.2 °F 64% 30.06 in 5.6 mi North 4.6 mph - N/A   Unknown
12:00 PM 71 °F 57 °F 51% 29.99 in 6 mi North 4.6 mph - -  
12:00 PM 71.6 °F 57.2 °F 60% 30.04 in - North 4.6 mph - N/A   Clear
12:30 PM 71.6 °F 55.4 °F 57% 30.04 in - North 5.8 mph - N/A   Clear
1:00 PM 73.4 °F 53.6 °F 50% 30.01 in - North 4.6 mph - N/A   Clear
1:30 PM 75.2 °F 53.6 °F 47% 30.01 in - NW 3.5 mph - N/A   Clear
2:00 PM 75.2 °F 50.0 °F 41% 30.01 in - NNW 5.8 mph - N/A   Clear
2:30 PM 77.0 °F 48.2 °F 36% 29.98 in - North 5.8 mph - N/A   Clear
3:00 PM 77 °F 48 °F 25% 29.92 in 6 mi NNE 6.9 mph - -   Clear
3:00 PM 77.0 °F 48.2 °F 36% 29.98 in 6.2 mi NNE 6.9 mph - N/A   Partly Cloudy
3:30 PM 77.0 °F 48.2 °F 36% 29.98 in 6.2 mi Variable 5.8 mph - N/A   Partly Cloudy
4:00 PM 77.0 °F 48.2 °F 36% 29.98 in 6.2 mi NE 6.9 mph - N/A   Partly Cloudy
4:30 PM 77.0 °F 48.2 °F 36% 29.98 in 6.2 mi North 5.8 mph - N/A   Partly Cloudy
5:00 PM 77.0 °F 48.2 °F 36% 29.98 in 6.2 mi NNE 4.6 mph - N/A   Partly Cloudy
5:30 PM 75.2 °F 48.2 °F 38% 29.98 in 6.2 mi NE 8.1 mph - N/A   Partly Cloudy
6:00 PM 73 °F 46 °F 27% 29.94 in 6 mi NE 6.9 mph - -   Scattered Clouds
6:00 PM 73.4 °F 46.4 °F 38% 30.01 in 6.2 mi NE 6.9 mph - N/A   Partly Cloudy
6:30 PM 71.6 °F 46.4 °F 41% 30.01 in 6.2 mi NE 6.9 mph - N/A   Partly Cloudy
7:00 PM 69.8 °F 44.6 °F 40% 30.01 in 6.2 mi ENE 5.8 mph - N/A   Partly Cloudy
7:30 PM 68.0 °F 46.4 °F 46% 30.01 in 6.2 mi East 4.6 mph - N/A   Partly Cloudy
8:00 PM 68.0 °F 46.4 °F 46% 30.04 in 6.2 mi NNE 4.6 mph - N/A   Partly Cloudy
8:30 PM 68.0 °F 50.0 °F 52% 30.04 in 6.2 mi NE 8.1 mph - N/A   Partly Cloudy
9:00 PM 67 °F 49 °F 41% 30.00 in 6 mi NE 6.9 mph - -   Scattered Clouds
9:00 PM 68.0 °F 48.2 °F 49% 30.04 in 6.2 mi NE 6.9 mph - N/A   Partly Cloudy
9:30 PM 66.2 °F 48.2 °F 52% 30.04 in 6.2 mi NE 6.9 mph - N/A   Partly Cloudy
10:00 PM 64.4 °F 46.4 °F 52% 30.04 in - East 5.8 mph - N/A   Clear
10:30 PM 62.6 °F 48.2 °F 59% 30.04 in - East 3.5 mph - N/A   Clear
11:00 PM 62.6 °F 48.2 °F 59% 30.04 in - East 3.5 mph - N/A   Clear
11:30 PM 60.8 °F 48.2 °F 63% 30.04 in - East 4.6 mph - N/A   Clear